カタログに戻る

STARLINK-30986

運用中通信VLEO
NORAD 58492·PAYLOAD·🇺🇸 United States

打ち上げ Dec 3, 2023 から Cape Canaveral Space Force Station

Loading…

次のパス (今後24時間)

TLE

最新Source: CelesTrak SupGP

元期: Sep 15, 2026, 02:24 UTC

1 58492C 23186V   26258.10048611 -.00001275  00000+0 -46189-4 0  2588
2 58492  43.0034  73.8278 0001888 268.4044 161.8444 15.27561601    15

AllMySatでSTARLINK-30986をリアルタイム追跡

Download on the App Store